User: anonymous   Login
Location: Unspecified
(0.0000°N, 0.0000°E)
Time: 23:19:25
(UTC+00:00)
Language:

KITSAT 1 - Orbit

View from above orbital plane
View from above orbital plane
View from above satellite
View from above satellite

Ground track
Ground track

The orbit data is extracted from the following two-line orbital elements,

1 22077U 92052B   18050.73777714 -.00000037 +00000-0 +99620-4 0  9994
2 22077 066.0850 168.0193 0015661 267.1512 201.3248 12.86522259198860
Epoch (UTC): 19 February 2018 17:42:23
Eccentricity: 0.0015661
inclination: 66.0850°
perigee height: 1303 km
apogee height: 1327 km
right ascension of ascending node: 168.0193°
argument of perigee: 267.1512°
revolutions per day: 12.86522259
mean anomaly at epoch: 201.3248°
orbit number at epoch: 19886

The dashed part of the orbit path shows where the satellite is in the earth's shadow,  

DLR